Regional Weather Roundup
Issued by NWS

Home | Current Version | Previous Version | Text Only | Print | Product List | Glossary Off
Versions: 1 2 3 4 5 6 7 8 9 10 11 12 13 14 15 16 17 18 19 20 21 22 23 24 25 26 27 28 29 30 31 32 33 34 35 36 37 38 39 40 41 42 43 44 45 46 47 48 49 50

128
ASUS43 KDMX 270501
RWRIA

WEATHER ROUNDUP FOR IOWA
NATIONAL WEATHER SERVICE DES MOINES IA
1200 AM CDT MON MAR 27 2017

NOTE: "FAIR" INDICATES FEW OR NO CLOUDS BELOW 12,000 FEET WITH NO
SIGNIFICANT WEATHER AND/OR OBSTRUCTIONS TO VISIBILITY.

* - THESE STATIONS ARE NOT NWS STATIONS...THUS NOT UNDER NWS
QUALITY CONTROL.  THEY ALSO DO NOT REPORT WEATHER SUCH
AS PRECIPITATION OR FOG.

IAZ001>003-012>014-020>022-031>034-043>046-270600-
   NORTHWEST IOWA

CITY           SKY/WX    TMP DP  RH WIND       PRES   REMARKS
CARROLL *      CLOUDY    43  43 100 N5        29.94S
CHEROKEE *     CLOUDY    42  40  93 NE3       29.95F
LE MARS *      CLOUDY    45  41  87 CALM      29.96F
ORANGE CITY *  CLOUDY    43  39  87 CALM      29.95F
SHELDON *      CLOUDY    41  41 100 CALM      29.94F
SIOUX CITY     CLOUDY    45  40  82 N5        29.96F
SPENCER        CLOUDY    41  39  93 CALM      29.96F
STORM LAKE *   CLOUDY    41  39  93 N5        29.95F
$$

IAZ055>058-069>071-079>083-090>094-270600-
   SOUTHWEST IOWA

CITY           SKY/WX    TMP DP  RH WIND       PRES   REMARKS
ATLANTIC *     CLOUDY    45  43  93 N3        29.95R
AUDUBON *      CLOUDY    45  41  87 CALM      29.94F
CLARINDA *     CLOUDY    46  45  93 N6        29.95F
COUNCIL BLFS * CLOUDY    46  46 100 CALM      29.94S
CRESTON *      CLOUDY    45  45 100 N6        29.94S FOG
HARLAN  *      CLOUDY    45  45 100 CALM      29.97R
LAMONI         LGT RAIN  46  43  89 CALM      29.91F
RED OAK *      CLOUDY    46  43  87 N5        29.94S
SHENANDOAH *   CLOUDY    46  45  93 N5        29.94F
$$

IAZ047>049-059>061-072>074-084-270600-
   CENTRAL IOWA

CITY           SKY/WX    TMP DP  RH WIND       PRES   REMARKS
AMES           CLOUDY    44  44 100 N9        29.93F
ANKENY *       CLOUDY    45  43  93 NW3       29.95S
BOONE *        CLOUDY    43  43 100 N7        29.92F
CHARITON *     CLOUDY    45  45 100 CALM      29.94R FOG
DES MOINES     CLOUDY    46  44  93 N3        29.94S
GRINNELL*      CLOUDY    44  43  96 W5        29.94F FOG
MARSHALLTOWN   CLOUDY    44  44 100 N3        29.91F FOG
NEWTON *       CLOUDY    45  43  93 W5        29.93S FOG
PELLA *        CLOUDY    45  44  96 NW3       29.95S FOG
PERRY *        CLOUDY    44  43  95 N5        29.94S
$$

IAZ004>006-015-016-023>025-035-036-270600-
   NORTH CENTRAL IOWA

CITY           SKY/WX    TMP DP  RH WIND       PRES   REMARKS
ALGONA *       CLOUDY    41  41 100 NW6       29.95F
CLARION *      CLOUDY    41  41 100 NW7       29.94F
ESTHERVILLE    CLOUDY    39  39 100 W6        29.94F WCI  35
FORT DODGE *   CLOUDY    41  37  87 N7        29.95F
MASON CITY     CLOUDY    40  39  97 NW6       29.95F FOG
FOREST CITY *  CLOUDY    39  39 100 NW5       29.94F FOG
WEBSTER CITY * CLOUDY    41  41 100 N9        29.92F
IOWA FALLS *   CLOUDY    43  42  95 NW7       29.94F
$$

IAZ007>011-017>019-026>030-037>042-050>054-066-270600-
   NORTHEAST IOWA

CITY           SKY/WX    TMP DP  RH WIND       PRES   REMARKS
CEDAR RAPIDS   CLOUDY    45  45 100 NW6       29.91F
CHARLES CITY * CLOUDY    41  41 100 NW6       29.93F
CLINTON *      CLOUDY    47  46  97 W9        29.92S
DECORAH *      CLOUDY    39  39 100 CALM      29.91S
DUBUQUE        CLOUDY    43  43 100 NW6       29.91R FOG
MONTICELLO *   CLOUDY    45  45 100 W5        29.92S
OELWEIN *      CLOUDY    43  43 100 NW5       29.93S FOG
WATERLOO       CLOUDY    43  41  93 CALM      29.92F
$$

IAZ064-065-067-068-078-270600-
   EAST CENTRAL IOWA

CITY           SKY/WX    TMP DP  RH WIND       PRES   REMARKS
DAVENPORT      CLOUDY    47  45  93 W7        29.92S
IOWA CITY      CLOUDY    48  45  89 NW6       29.93F
MUSCATINE *    CLOUDY    48  46  93 W5        29.93F FOG
QUAD CITIES    CLOUDY    49  45  86 W6        29.92F
$$

IAZ062-063-075>077-085>089-095>099-270600-
   SOUTHEAST IOWA

CITY           SKY/WX    TMP DP  RH WIND       PRES   REMARKS
BURLINGTON     CLOUDY    48  47  96 NW3       29.92S FOG
FAIRFIELD *    CLOUDY    46  46 100 W6        29.94R FOG
FORT MADISON * CLOUDY    48  46  93 SW5       29.95R FOG
KEOKUK *       CLOUDY    48  46  93 SW5       29.94R
OSKALOOSA *    CLOUDY    44  44  98 NW6       29.94S FOG
OTTUMWA        CLOUDY    46  46 100 NW5       29.93S FOG
WASHINGTON *   CLOUDY    46  46 100 W6        29.94S FOG
$$

ABBREVIATIONS USED IN REMARKS
   TC - TEMPERATURES IN CELSIUS
  WCI - WIND CHILL INDEX
   HX - HEAT INDEX
  VSB - VISIBILITY
$$





USA.gov is the U.S. government's official web portal to all federal, state and local government web resources and services.